[Date Prev][Date Next][Thread Prev][Thread Next] - [Date Index][Thread Index][Author Index]
2 Line ISS Keps 2-27
- Subject: [sarex] 2 Line ISS Keps 2-27
- From: "Dave Larsen PhD" <doc@xxxxxxxxxxx>
- Date: Sun, 26 Feb 2006 18:58:52 -0800
ISS
1 25544U 98067A 06058.03451628 .00012583 00000-0 91117-4 0 4298
2 25544 051.6429 034.0737 0008181 304.0995 100.5615 15.73857540415802
----
Via the sarex mailing list at AMSAT.ORG courtesy of AMSAT-NA.
To unsubscribe, send "unsubscribe sarex" to Majordomo@amsat.org
AMSAT Home